Location: ??
(35.5138°N, 139.6953°E)
Time: 09:01:05
(UTC+00:00)

FALCON 9 DEB - Pass Details

Date: 07 June 2020
Orbit: 428 x 442 km, 53.0° (Epoch: 05 July)

Event Time Altitude Azimuth Distance (km) Brightness Sun altitude
Rises 11:14:51 0° 237° (WSW) 2,376 7.1 -14.1°
Reaches altitude 10° 11:16:59 10° 244° (WSW) 1,514 6.1 -14.4°
Maximum altitude 11:20:17 47° 319° (NW) 575 4.2 -14.9°
Drops below altitude 10° 11:23:36 10° 35° (NE) 1,525 6.0 -15.4°
Sets 11:25:46 0° 41° (NE) 2,396 6.9 -15.7°
